Location: Easthampton
(42.2676°N, 72.6690°W)
Time: 09:11:57
(UTC+00:00)

Gurwin Techsat 1B - Pass Details

Date: 09 April 2023
Orbit: 811 x 813 km, 98.9° (Epoch: 02 June)

Event Time Altitude Azimuth Distance (km) Brightness Sun altitude
Rises 07:21:23 0° 19° (NNE) 3,347 12.8 -29.7°
Reaches altitude 10° 07:23:49 10° 25° (NNE) 2,411 11.9 -29.4°
Maximum altitude 07:28:59 49° 100° (E) 1,042 9.3 -28.7°
Enters shadow 07:29:40 46° 125° (SE) 1,082 9.2 -28.7°
